Location: Unspecified
(0.0000°N, 0.0000°E)
Time: 08:11:32
(UTC+00:00)

SNAP-3 ALICE - Visible Passes

Search period start: 10 December 2025 00:00
Search period end: 20 December 2025 00:00
Orbit: 434 x 496 km, 64.8° (Epoch: 09 December)

Date Brightness Start Highest point End Pass type
(mag) Time Alt. Az. Time Alt. Az. Time Alt. Az.
10 Dec ? 19:59:36 10° SSW 20:00:45 19° SSW 20:00:45 19° SSW visible
11 Dec ? 19:27:44 10° S 19:30:23 38° SSE 19:30:23 38° SSE visible
12 Dec ? 18:56:03 10° S 18:59:18 28° ESE 19:00:00 27° E visible
13 Dec ? 18:24:39 10° SSE 18:27:10 17° ESE 18:29:35 10° ENE visible
13 Dec ? 20:01:36 10° W 20:03:26 13° WNW 20:03:33 13° WNW visible
14 Dec ? 19:28:19 10° WSW 19:31:14 22° WNW 19:33:06 15° NNW visible
15 Dec ? 18:55:30 10° SW 18:58:57 38° WNW 19:02:20 10° N visible
16 Dec ? 18:22:53 10° SSW 18:26:35 71° WNW 18:30:11 10° NNE visible
19 Dec ? 05:02:12 10° NNE 05:05:02 24° ENE 05:07:55 10° ESE visible
19 Dec ? 18:23:56 10° W 18:25:11 11° WNW 18:26:26 10° NW visible
